Year,Month,Day,Hour,Minute,Value (Times are PST for windgust in km/hr)
2010,05,19,00,25,1.60
2010,05,19,00,26,1.60
2010,05,19,00,27,1.60
2010,05,19,00,28,1.60
2010,05,19,00,29,1.60
2010,05,19,00,31,1.60
2010,05,19,00,32,1.60
2010,05,19,00,44,1.60
2010,05,19,00,45,1.60
2010,05,19,00,51,1.60
2010,05,19,00,52,1.60
2010,05,19,00,59,1.60
2010,05,19,01,00,4.80
2010,05,19,01,01,1.60
2010,05,19,01,02,1.60
2010,05,19,01,06,1.60
2010,05,19,01,08,1.60
2010,05,19,01,09,1.60
2010,05,19,01,11,1.60
2010,05,19,01,12,1.60
2010,05,19,01,13,1.60
2010,05,19,01,16,3.20
2010,05,19,01,19,4.80
2010,05,19,01,20,3.20
2010,05,19,01,21,3.20
2010,05,19,01,22,3.20
2010,05,19,01,23,3.20
2010,05,19,01,25,3.20
2010,05,19,01,26,1.60
2010,05,19,01,27,4.80
2010,05,19,01,28,3.20
2010,05,19,01,29,1.60
2010,05,19,01,30,3.20
2010,05,19,01,31,1.60
2010,05,19,01,32,1.60
2010,05,19,01,33,1.60
2010,05,19,01,34,1.60
2010,05,19,01,35,1.60
2010,05,19,01,36,1.60
2010,05,19,01,37,6.40
2010,05,19,01,38,6.40
2010,05,19,01,39,6.40
2010,05,19,01,40,4.80
2010,05,19,01,41,3.20
2010,05,19,01,42,3.20
2010,05,19,01,43,3.20
2010,05,19,01,44,3.20
2010,05,19,01,45,3.20
2010,05,19,01,46,3.20
2010,05,19,01,48,1.60
2010,05,19,01,49,1.60
2010,05,19,01,50,3.20
2010,05,19,01,53,3.20
2010,05,19,01,54,1.60
2010,05,19,01,55,1.60
2010,05,19,01,59,1.60
2010,05,19,02,00,1.60
2010,05,19,02,01,1.60
2010,05,19,02,04,6.40
2010,05,19,02,05,4.80
2010,05,19,02,06,6.40
2010,05,19,02,07,1.60
2010,05,19,02,08,4.80
2010,05,19,02,09,4.80
2010,05,19,02,10,4.80
2010,05,19,02,11,1.60
2010,05,19,02,12,1.60
2010,05,19,02,15,1.60
2010,05,19,02,16,1.60
2010,05,19,02,17,3.20
2010,05,19,02,18,1.60
2010,05,19,02,20,1.60
2010,05,19,02,21,3.20
2010,05,19,02,22,1.60
2010,05,19,02,23,1.60
2010,05,19,02,24,3.20
2010,05,19,02,25,3.20
2010,05,19,02,26,1.60
2010,05,19,02,27,1.60
2010,05,19,02,28,1.60
2010,05,19,02,29,4.80
2010,05,19,02,30,6.40
2010,05,19,02,31,4.80
2010,05,19,02,32,1.60
2010,05,19,02,33,1.60
2010,05,19,02,34,1.60
2010,05,19,02,35,1.60
2010,05,19,02,39,1.60
2010,05,19,02,41,3.20
2010,05,19,02,43,1.60
2010,05,19,02,53,1.60
2010,05,19,03,03,1.60
2010,05,19,03,04,1.60
2010,05,19,03,07,1.60
2010,05,19,03,08,3.20
2010,05,19,03,11,1.60
2010,05,19,03,21,1.60
2010,05,19,03,56,1.60
2010,05,19,04,04,1.60
2010,05,19,04,07,3.20
2010,05,19,04,08,1.60
2010,05,19,04,09,1.60
2010,05,19,04,11,1.60
2010,05,19,04,14,1.60
2010,05,19,04,17,1.60
2010,05,19,04,18,3.20
2010,05,19,04,19,1.60
2010,05,19,04,21,3.20
2010,05,19,04,22,3.20
2010,05,19,04,23,9.60
2010,05,19,04,24,6.40
2010,05,19,04,25,6.40
2010,05,19,04,26,6.40
2010,05,19,04,27,3.20
2010,05,19,04,28,1.60
2010,05,19,04,29,4.80
2010,05,19,04,30,3.20
2010,05,19,04,31,4.80
2010,05,19,04,32,9.60
2010,05,19,04,33,9.60
2010,05,19,04,34,6.40
2010,05,19,04,35,6.40
2010,05,19,04,36,3.20
2010,05,19,04,37,8.10
2010,05,19,04,38,11.30
2010,05,19,04,39,6.40
2010,05,19,04,40,4.80
2010,05,19,04,41,4.80
2010,05,19,04,42,3.20
2010,05,19,04,43,3.20
2010,05,19,04,44,1.60
2010,05,19,04,45,4.80
2010,05,19,04,46,4.80
2010,05,19,04,47,1.60
2010,05,19,04,48,1.60
2010,05,19,04,51,3.20
2010,05,19,04,52,1.60
2010,05,19,04,53,6.40
2010,05,19,04,54,4.80
2010,05,19,04,55,4.80
2010,05,19,04,56,1.60
2010,05,19,04,57,1.60
2010,05,19,05,00,1.60
2010,05,19,05,03,4.80
2010,05,19,05,04,3.20
2010,05,19,05,05,1.60
2010,05,19,05,06,6.40
2010,05,19,05,07,6.40
2010,05,19,05,08,9.60
2010,05,19,05,09,11.30
2010,05,19,05,10,3.20
2010,05,19,05,11,1.60
2010,05,19,05,12,3.20
2010,05,19,05,13,3.20
2010,05,19,05,14,4.80
2010,05,19,05,15,11.30
2010,05,19,05,16,9.60
2010,05,19,05,17,11.30
2010,05,19,05,18,4.80
2010,05,19,05,20,3.20
2010,05,19,05,21,6.40
2010,05,19,05,22,4.80
2010,05,19,05,23,1.60
2010,05,19,05,24,4.80
2010,05,19,05,25,6.40
2010,05,19,05,26,8.10
2010,05,19,05,27,3.20
2010,05,19,05,28,1.60
2010,05,19,05,29,1.60
2010,05,19,05,30,8.10
2010,05,19,05,31,3.20
2010,05,19,05,33,8.10
2010,05,19,05,34,8.10
2010,05,19,05,35,8.10
2010,05,19,05,37,4.80
2010,05,19,05,38,8.10
2010,05,19,05,39,6.40
2010,05,19,05,40,3.20
2010,05,19,05,41,4.80
2010,05,19,05,42,4.80
2010,05,19,05,43,4.80
2010,05,19,05,44,6.40
2010,05,19,05,45,6.40
2010,05,19,05,46,1.60
2010,05,19,05,47,1.60
2010,05,19,05,49,3.20
2010,05,19,05,50,4.80
2010,05,19,05,51,4.80
2010,05,19,05,52,1.60
2010,05,19,05,53,1.60
2010,05,19,05,54,3.20
2010,05,19,05,55,4.80
2010,05,19,05,56,4.80
2010,05,19,05,57,1.60
2010,05,19,05,58,3.20
2010,05,19,06,00,1.60
2010,05,19,06,01,4.80
2010,05,19,06,02,6.40
2010,05,19,06,03,8.10
2010,05,19,06,04,1.60
2010,05,19,06,05,9.60
2010,05,19,06,06,6.40
2010,05,19,06,07,6.40
2010,05,19,06,08,4.80
2010,05,19,06,09,1.60
2010,05,19,06,10,3.20
2010,05,19,06,11,1.60
2010,05,19,06,12,3.20
2010,05,19,06,13,1.60
2010,05,19,06,14,6.40
2010,05,19,06,15,1.60
2010,05,19,06,16,1.60
2010,05,19,06,17,1.60
2010,05,19,06,21,3.20
2010,05,19,06,22,1.60
2010,05,19,06,23,1.60
2010,05,19,06,24,1.60
2010,05,19,07,02,6.40
2010,05,19,07,03,1.60
2010,05,19,07,04,1.60
2010,05,19,07,06,1.60
2010,05,19,07,08,3.20
2010,05,19,07,09,1.60
2010,05,19,07,10,3.20
2010,05,19,07,11,6.40
2010,05,19,07,12,3.20
2010,05,19,07,13,1.60
2010,05,19,07,17,1.60
2010,05,19,07,18,3.20
2010,05,19,07,23,1.60
2010,05,19,07,24,1.60
2010,05,19,07,28,1.60
2010,05,19,07,29,1.60
2010,05,19,07,30,3.20
2010,05,19,07,31,6.40
2010,05,19,07,32,8.10
2010,05,19,07,33,1.60
2010,05,19,07,34,1.60
2010,05,19,07,36,1.60
2010,05,19,07,38,1.60
2010,05,19,07,39,1.60
2010,05,19,07,40,4.80
2010,05,19,07,41,4.80
2010,05,19,07,42,6.40
2010,05,19,07,43,3.20
2010,05,19,07,44,4.80
2010,05,19,07,45,1.60
2010,05,19,07,46,1.60
2010,05,19,07,47,3.20
2010,05,19,07,48,3.20
2010,05,19,07,50,1.60
2010,05,19,07,53,1.60
2010,05,19,07,54,1.60
2010,05,19,07,55,4.80
2010,05,19,07,56,1.60
2010,05,19,07,58,4.80
2010,05,19,07,59,4.80
2010,05,19,08,00,1.60
2010,05,19,08,03,1.60
2010,05,19,08,04,1.60
2010,05,19,08,06,3.20
2010,05,19,08,09,4.80
2010,05,19,08,12,6.40
2010,05,19,08,13,1.60
2010,05,19,08,16,4.80
2010,05,19,08,17,6.40
2010,05,19,08,18,4.80
2010,05,19,08,21,6.40
2010,05,19,08,22,4.80
2010,05,19,08,23,1.60
2010,05,19,08,24,1.60
2010,05,19,08,26,3.20
2010,05,19,08,27,4.80
2010,05,19,08,28,4.80
2010,05,19,08,29,3.20
2010,05,19,08,30,1.60
2010,05,19,08,31,1.60
2010,05,19,08,33,4.80
2010,05,19,08,34,3.20
2010,05,19,08,35,1.60
2010,05,19,08,36,1.60
2010,05,19,08,37,8.10
2010,05,19,08,38,9.60
2010,05,19,08,39,6.40
2010,05,19,08,40,4.80
2010,05,19,08,41,6.40
2010,05,19,08,42,4.80
2010,05,19,08,43,4.80
2010,05,19,08,44,4.80
2010,05,19,08,45,12.90
2010,05,19,08,46,9.60
2010,05,19,08,47,11.30
2010,05,19,08,48,9.60
2010,05,19,08,49,8.10
2010,05,19,08,50,1.60
2010,05,19,08,51,3.20
2010,05,19,08,53,4.80
2010,05,19,08,54,3.20
2010,05,19,08,55,4.80
2010,05,19,08,56,6.40
2010,05,19,08,57,9.60
2010,05,19,08,58,6.40
2010,05,19,08,59,3.20
2010,05,19,09,00,9.60
2010,05,19,09,01,11.30
2010,05,19,09,02,8.10
2010,05,19,09,03,4.80
2010,05,19,09,04,12.90
2010,05,19,09,05,6.40
2010,05,19,09,06,8.10
2010,05,19,09,07,14.50
2010,05,19,09,08,4.80
2010,05,19,09,09,12.90
2010,05,19,09,10,6.40
2010,05,19,09,11,4.80
2010,05,19,09,12,4.80
2010,05,19,09,13,4.80
2010,05,19,09,14,4.80
2010,05,19,09,15,6.40
2010,05,19,09,16,11.30
2010,05,19,09,17,3.20
2010,05,19,09,18,8.10
2010,05,19,09,19,4.80
2010,05,19,09,20,3.20
2010,05,19,09,21,8.10
2010,05,19,09,22,3.20
2010,05,19,09,23,1.60
2010,05,19,09,24,3.20
2010,05,19,09,25,4.80
2010,05,19,09,26,8.10
2010,05,19,09,27,4.80
2010,05,19,09,28,16.10
2010,05,19,09,29,8.10
2010,05,19,09,30,4.80
2010,05,19,09,31,8.10
2010,05,19,09,32,8.10
2010,05,19,09,33,4.80
2010,05,19,09,34,6.40
2010,05,19,09,35,4.80
2010,05,19,09,36,4.80
2010,05,19,09,37,6.40
2010,05,19,09,38,3.20
2010,05,19,09,39,4.80
2010,05,19,09,40,6.40
2010,05,19,09,41,4.80
2010,05,19,09,42,3.20
2010,05,19,09,43,3.20
2010,05,19,09,44,6.40
2010,05,19,09,45,9.60
2010,05,19,09,46,4.80
2010,05,19,09,47,8.10
2010,05,19,09,48,4.80
2010,05,19,09,49,6.40
2010,05,19,09,50,4.80
2010,05,19,09,51,4.80
2010,05,19,09,52,8.10
2010,05,19,09,53,11.30
2010,05,19,09,54,8.10
2010,05,19,09,55,4.80
2010,05,19,09,56,8.10
2010,05,19,09,57,9.60
2010,05,19,09,58,4.80
2010,05,19,09,59,3.20
2010,05,19,10,00,9.60
2010,05,19,10,01,6.40
2010,05,19,10,02,16.10
2010,05,19,10,03,11.30
2010,05,19,10,04,3.20
2010,05,19,10,05,1.60
2010,05,19,10,06,1.60
2010,05,19,10,07,4.80
2010,05,19,10,08,14.50
2010,05,19,10,09,6.40
2010,05,19,10,10,6.40
2010,05,19,10,11,8.10
2010,05,19,10,12,6.40
2010,05,19,10,13,3.20
2010,05,19,10,14,4.80
2010,05,19,10,15,4.80
2010,05,19,10,16,4.80
2010,05,19,10,17,3.20
2010,05,19,10,18,8.10
2010,05,19,10,19,6.40
2010,05,19,10,20,1.60
2010,05,19,10,21,14.50
2010,05,19,10,22,9.60
2010,05,19,10,23,8.10
2010,05,19,10,24,6.40
2010,05,19,10,25,8.10
2010,05,19,10,26,3.20
2010,05,19,10,27,6.40
2010,05,19,10,28,11.30
2010,05,19,10,29,8.10
2010,05,19,10,30,16.10
2010,05,19,10,31,3.20
2010,05,19,10,32,4.80
2010,05,19,10,33,3.20
2010,05,19,10,34,8.10
2010,05,19,10,35,6.40
2010,05,19,10,36,8.10
2010,05,19,10,37,1.60
2010,05,19,10,38,4.80
2010,05,19,10,39,4.80
2010,05,19,10,40,6.40
2010,05,19,10,41,4.80
2010,05,19,10,42,1.60
2010,05,19,10,43,4.80
2010,05,19,10,44,1.60
2010,05,19,10,45,6.40
2010,05,19,10,46,6.40
2010,05,19,10,47,8.10
2010,05,19,10,48,6.40
2010,05,19,10,49,8.10
2010,05,19,10,50,9.60
2010,05,19,10,51,8.10
2010,05,19,10,52,6.40
2010,05,19,10,53,6.40
2010,05,19,10,54,3.20
2010,05,19,10,55,3.20
2010,05,19,10,56,4.80
2010,05,19,10,57,3.20
2010,05,19,10,58,6.40
2010,05,19,10,59,1.60
2010,05,19,11,00,3.20
2010,05,19,11,01,8.10
2010,05,19,11,02,6.40
2010,05,19,11,03,8.10
2010,05,19,11,04,6.40
2010,05,19,11,05,11.30
2010,05,19,11,06,11.30
2010,05,19,11,07,6.40
2010,05,19,11,08,9.60
2010,05,19,11,09,6.40
2010,05,19,11,10,4.80
2010,05,19,11,11,3.20
2010,05,19,11,12,11.30
2010,05,19,11,13,14.50
2010,05,19,11,14,16.10
2010,05,19,11,15,6.40
2010,05,19,11,16,12.90
2010,05,19,11,17,11.30
2010,05,19,11,18,14.50
2010,05,19,11,19,6.40
2010,05,19,11,20,6.40
2010,05,19,11,21,9.60
2010,05,19,11,22,4.80
2010,05,19,11,23,11.30
2010,05,19,11,24,11.30
2010,05,19,11,25,3.20
2010,05,19,11,26,11.30
2010,05,19,11,27,19.30
2010,05,19,11,28,11.30
2010,05,19,11,29,14.50
2010,05,19,11,30,11.30
2010,05,19,11,31,6.40
2010,05,19,11,32,11.30
2010,05,19,11,33,12.90
2010,05,19,11,34,9.60
2010,05,19,11,35,11.30
2010,05,19,11,36,6.40
2010,05,19,11,37,8.10
2010,05,19,11,38,8.10
2010,05,19,11,39,9.60
2010,05,19,11,40,9.60
2010,05,19,11,41,6.40
2010,05,19,11,42,4.80
2010,05,19,11,43,4.80
2010,05,19,11,44,11.30
2010,05,19,11,45,8.10
2010,05,19,11,46,8.10
2010,05,19,11,47,4.80
2010,05,19,11,48,6.40
2010,05,19,11,49,3.20
2010,05,19,11,50,4.80
2010,05,19,11,51,9.60
2010,05,19,11,52,8.10
2010,05,19,11,53,6.40
2010,05,19,11,54,4.80
2010,05,19,11,55,6.40
2010,05,19,11,56,8.10
2010,05,19,11,57,4.80
2010,05,19,11,58,3.20
2010,05,19,11,59,4.80
2010,05,19,12,00,6.40
2010,05,19,12,01,9.60
2010,05,19,12,02,4.80
2010,05,19,12,03,9.60
2010,05,19,12,04,8.10
2010,05,19,12,05,8.10
2010,05,19,12,06,6.40
2010,05,19,12,07,11.30
2010,05,19,12,08,6.40
2010,05,19,12,09,14.50
2010,05,19,12,10,8.10
2010,05,19,12,11,6.40
2010,05,19,12,12,3.20
2010,05,19,12,13,4.80
2010,05,19,12,14,3.20
2010,05,19,12,15,6.40
2010,05,19,12,16,8.10
2010,05,19,12,17,17.70
2010,05,19,12,18,6.40
2010,05,19,12,19,8.10
2010,05,19,12,20,6.40
2010,05,19,12,21,6.40
2010,05,19,12,22,9.60
2010,05,19,12,23,3.20
2010,05,19,12,24,4.80
2010,05,19,12,25,4.80
2010,05,19,12,26,3.20
2010,05,19,12,27,9.60
2010,05,19,12,28,19.30
2010,05,19,12,29,9.60
2010,05,19,12,30,6.40
2010,05,19,12,31,4.80
2010,05,19,12,32,9.60
2010,05,19,12,33,1.60
2010,05,19,12,34,1.60
2010,05,19,12,35,4.80
2010,05,19,12,36,6.40
2010,05,19,12,37,4.80
2010,05,19,12,38,4.80
2010,05,19,12,39,8.10
2010,05,19,12,40,11.30
2010,05,19,12,41,4.80
2010,05,19,12,42,9.60
2010,05,19,12,43,8.10
2010,05,19,12,44,9.60
2010,05,19,12,45,3.20
2010,05,19,12,46,8.10
2010,05,19,12,47,11.30
2010,05,19,12,48,8.10
2010,05,19,12,49,6.40
2010,05,19,12,50,6.40
2010,05,19,12,51,8.10
2010,05,19,12,52,9.60
2010,05,19,12,53,9.60
2010,05,19,12,54,14.50
2010,05,19,12,55,4.80
2010,05,19,12,56,12.90
2010,05,19,12,57,8.10
2010,05,19,12,58,6.40
2010,05,19,12,59,9.60
2010,05,19,13,00,3.20
2010,05,19,13,01,9.60
2010,05,19,13,02,6.40
2010,05,19,13,03,6.40
2010,05,19,13,04,8.10
2010,05,19,13,05,4.80
2010,05,19,13,06,17.70
2010,05,19,13,07,4.80
2010,05,19,13,08,4.80
2010,05,19,13,09,3.20
2010,05,19,13,10,8.10
2010,05,19,13,11,3.20
2010,05,19,13,12,4.80
2010,05,19,13,13,6.40
2010,05,19,13,14,6.40
2010,05,19,13,15,6.40
2010,05,19,13,16,3.20
2010,05,19,13,17,6.40
2010,05,19,13,18,3.20
2010,05,19,13,19,8.10
2010,05,19,13,20,6.40
2010,05,19,13,21,3.20
2010,05,19,13,22,9.60
2010,05,19,13,23,4.80
2010,05,19,13,24,8.10
2010,05,19,13,25,4.80
2010,05,19,13,26,4.80
2010,05,19,13,27,4.80
2010,05,19,13,28,9.60
2010,05,19,13,29,8.10
2010,05,19,13,30,1.60
2010,05,19,13,31,4.80
2010,05,19,13,32,6.40
2010,05,19,13,33,9.60
2010,05,19,13,34,9.60
2010,05,19,13,35,1.60
2010,05,19,13,36,3.20
2010,05,19,13,37,3.20
2010,05,19,13,38,3.20
2010,05,19,13,39,1.60
2010,05,19,13,40,3.20
2010,05,19,13,41,3.20
2010,05,19,13,42,3.20
2010,05,19,13,43,1.60
2010,05,19,13,44,3.20
2010,05,19,13,45,6.40
2010,05,19,13,46,4.80
2010,05,19,13,47,6.40
2010,05,19,13,48,1.60
2010,05,19,13,49,1.60
2010,05,19,13,51,6.40
2010,05,19,13,52,3.20
2010,05,19,13,53,1.60
2010,05,19,13,54,3.20
2010,05,19,13,55,3.20
2010,05,19,13,56,6.40
2010,05,19,13,57,1.60
2010,05,19,13,58,4.80
2010,05,19,13,59,4.80
2010,05,19,14,00,4.80
2010,05,19,14,01,3.20
2010,05,19,14,02,3.20
2010,05,19,14,03,1.60
2010,05,19,14,04,4.80
2010,05,19,14,05,3.20
2010,05,19,14,06,3.20
2010,05,19,14,07,1.60
2010,05,19,14,08,3.20
2010,05,19,14,09,3.20
2010,05,19,14,10,3.20
2010,05,19,14,11,4.80
2010,05,19,14,12,8.10
2010,05,19,14,13,4.80
2010,05,19,14,14,1.60
2010,05,19,14,15,4.80
2010,05,19,14,16,9.60
2010,05,19,14,17,8.10
2010,05,19,14,18,4.80
2010,05,19,14,19,1.60
2010,05,19,14,20,4.80
2010,05,19,14,21,3.20
2010,05,19,14,22,1.60
2010,05,19,14,23,3.20
2010,05,19,14,24,1.60
2010,05,19,14,25,3.20
2010,05,19,14,26,3.20
2010,05,19,14,27,1.60
2010,05,19,14,28,1.60
2010,05,19,14,31,1.60
2010,05,19,14,32,1.60
2010,05,19,14,33,3.20
2010,05,19,14,34,1.60
2010,05,19,14,35,3.20
2010,05,19,14,37,1.60
2010,05,19,14,38,4.80
2010,05,19,14,39,4.80
2010,05,19,14,40,4.80
2010,05,19,14,41,4.80
2010,05,19,14,42,4.80
2010,05,19,14,43,1.60
2010,05,19,14,45,1.60
2010,05,19,14,47,1.60
2010,05,19,14,48,3.20
2010,05,19,14,49,3.20
2010,05,19,14,50,4.80
2010,05,19,14,51,3.20
2010,05,19,14,52,8.10
2010,05,19,14,53,6.40
2010,05,19,14,54,4.80
2010,05,19,14,55,1.60
2010,05,19,14,56,1.60
2010,05,19,14,57,3.20
2010,05,19,14,58,1.60
2010,05,19,14,59,1.60
2010,05,19,15,00,1.60
2010,05,19,15,01,1.60
2010,05,19,15,02,3.20
2010,05,19,15,03,1.60
2010,05,19,15,06,1.60
2010,05,19,15,07,1.60
2010,05,19,15,09,1.60
2010,05,19,15,10,6.40
2010,05,19,15,11,8.10
2010,05,19,15,12,9.60
2010,05,19,15,13,6.40
2010,05,19,15,14,8.10
2010,05,19,15,15,8.10
2010,05,19,15,16,11.30
2010,05,19,15,17,9.60
2010,05,19,15,18,6.40
2010,05,19,15,19,4.80
2010,05,19,15,20,4.80
2010,05,19,15,21,4.80
2010,05,19,15,22,3.20
2010,05,19,15,23,19.30
2010,05,19,15,24,11.30
2010,05,19,15,25,8.10
2010,05,19,15,26,14.50
2010,05,19,15,27,11.30
2010,05,19,15,28,11.30
2010,05,19,15,29,9.60
2010,05,19,15,30,9.60
2010,05,19,15,31,4.80
2010,05,19,15,32,4.80
2010,05,19,15,33,4.80
2010,05,19,15,34,1.60
2010,05,19,15,35,3.20
2010,05,19,15,36,4.80
2010,05,19,15,37,8.10
2010,05,19,15,38,8.10
2010,05,19,15,39,3.20
2010,05,19,15,40,1.60
2010,05,19,15,41,1.60
2010,05,19,15,44,3.20
2010,05,19,15,45,3.20
2010,05,19,15,47,1.60
2010,05,19,15,53,1.60
2010,05,19,15,54,1.60
2010,05,19,15,55,1.60
2010,05,19,15,56,3.20
2010,05,19,15,57,1.60
2010,05,19,15,58,3.20
2010,05,19,15,59,3.20
2010,05,19,16,00,4.80
2010,05,19,16,01,6.40
2010,05,19,16,02,8.10
2010,05,19,16,03,6.40
2010,05,19,16,04,4.80
2010,05,19,16,06,3.20
2010,05,19,16,07,6.40
2010,05,19,16,08,11.30
2010,05,19,16,09,6.40
2010,05,19,16,10,9.60
2010,05,19,16,11,8.10
2010,05,19,16,12,9.60
2010,05,19,16,13,6.40
2010,05,19,16,14,6.40
2010,05,19,16,15,4.80
2010,05,19,16,16,1.60
2010,05,19,16,17,1.60
2010,05,19,16,18,4.80
2010,05,19,16,19,4.80
2010,05,19,16,21,1.60
2010,05,19,16,22,3.20
2010,05,19,16,23,3.20
2010,05,19,16,24,4.80
2010,05,19,16,25,8.10
2010,05,19,16,26,6.40
2010,05,19,16,27,3.20
2010,05,19,16,29,1.60
2010,05,19,16,30,3.20
2010,05,19,16,31,9.60
2010,05,19,16,32,4.80
2010,05,19,16,33,8.10
2010,05,19,16,35,1.60
2010,05,19,16,36,3.20
2010,05,19,16,37,1.60
2010,05,19,16,38,3.20
2010,05,19,16,39,3.20
2010,05,19,16,40,1.60
2010,05,19,16,41,3.20
2010,05,19,16,42,6.40
2010,05,19,16,43,4.80
2010,05,19,16,44,6.40
2010,05,19,16,45,3.20
2010,05,19,16,46,3.20
2010,05,19,16,47,4.80
2010,05,19,16,48,1.60
2010,05,19,16,49,3.20
2010,05,19,16,50,4.80
2010,05,19,16,52,1.60
2010,05,19,16,53,6.40
2010,05,19,16,54,1.60
2010,05,19,16,55,3.20
2010,05,19,16,56,8.10
2010,05,19,16,57,4.80
2010,05,19,16,58,16.10
2010,05,19,16,59,11.30
2010,05,19,17,00,9.60
2010,05,19,17,01,12.90
2010,05,19,17,02,11.30
2010,05,19,17,03,6.40
2010,05,19,17,04,16.10
2010,05,19,17,05,16.10
2010,05,19,17,06,8.10
2010,05,19,17,07,9.60
2010,05,19,17,08,14.50
2010,05,19,17,09,3.20
2010,05,19,17,10,3.20
2010,05,19,17,11,1.60
2010,05,19,17,12,3.20
2010,05,19,17,13,9.60
2010,05,19,17,14,3.20
2010,05,19,17,15,6.40
2010,05,19,17,16,6.40
2010,05,19,17,17,11.30
2010,05,19,17,18,16.10
2010,05,19,17,19,19.30
2010,05,19,17,20,22.50
2010,05,19,17,21,16.10
2010,05,19,17,22,14.50
2010,05,19,17,23,16.10
2010,05,19,17,24,12.90
2010,05,19,17,25,12.90
2010,05,19,17,26,9.60
2010,05,19,17,27,9.60
2010,05,19,17,28,14.50
2010,05,19,17,29,16.10
2010,05,19,17,30,14.50
2010,05,19,17,31,9.60
2010,05,19,17,32,9.60
2010,05,19,17,33,9.60
2010,05,19,17,34,8.10
2010,05,19,17,35,12.90
2010,05,19,17,36,9.60
2010,05,19,17,37,14.50
2010,05,19,17,38,9.60
2010,05,19,17,39,9.60
2010,05,19,17,40,17.70
2010,05,19,17,41,17.70
2010,05,19,17,42,17.70
2010,05,19,17,43,17.70
2010,05,19,17,44,19.30
2010,05,19,17,45,14.50
2010,05,19,17,46,11.30
2010,05,19,17,47,16.10
2010,05,19,17,48,9.60
2010,05,19,17,49,6.40
2010,05,19,17,50,6.40
2010,05,19,17,51,9.60
2010,05,19,17,52,12.90
2010,05,19,17,53,11.30
2010,05,19,17,54,6.40
2010,05,19,17,55,4.80
2010,05,19,17,56,1.60
2010,05,19,17,57,1.60
2010,05,19,17,58,1.60
2010,05,19,17,59,1.60
2010,05,19,18,00,1.60
2010,05,19,18,01,1.60
2010,05,19,18,02,1.60
2010,05,19,18,03,3.20
2010,05,19,18,04,3.20
2010,05,19,18,07,1.60
2010,05,19,18,08,1.60
2010,05,19,18,09,1.60
2010,05,19,18,10,1.60
2010,05,19,18,11,6.40
2010,05,19,18,12,1.60
2010,05,19,18,13,4.80
2010,05,19,18,14,3.20
2010,05,19,18,15,1.60
2010,05,19,18,16,4.80
2010,05,19,18,17,1.60
2010,05,19,18,20,3.20
2010,05,19,18,21,1.60
2010,05,19,18,22,6.40
2010,05,19,18,23,4.80
2010,05,19,18,24,3.20
2010,05,19,18,25,4.80
2010,05,19,18,26,3.20
2010,05,19,18,27,1.60
2010,05,19,18,28,3.20
2010,05,19,18,29,6.40
2010,05,19,18,30,1.60
2010,05,19,18,31,1.60
2010,05,19,18,32,1.60
2010,05,19,18,33,4.80
2010,05,19,18,34,6.40
2010,05,19,18,35,3.20
2010,05,19,18,36,4.80
2010,05,19,18,37,1.60
2010,05,19,18,38,1.60
2010,05,19,18,39,1.60
2010,05,19,18,40,1.60
2010,05,19,18,41,1.60
2010,05,19,18,42,1.60
2010,05,19,18,45,1.60
2010,05,19,18,46,3.20
2010,05,19,18,47,3.20
2010,05,19,18,48,1.60
2010,05,19,18,49,1.60
2010,05,19,18,50,1.60
2010,05,19,18,51,1.60
2010,05,19,18,53,4.80
2010,05,19,18,54,4.80
2010,05,19,18,55,4.80
2010,05,19,18,56,6.40
2010,05,19,18,57,8.10
2010,05,19,18,58,6.40
2010,05,19,18,59,8.10
2010,05,19,19,00,1.60
2010,05,19,19,01,3.20
2010,05,19,19,02,9.60
2010,05,19,19,03,1.60
2010,05,19,19,04,3.20
2010,05,19,19,05,1.60
2010,05,19,19,06,1.60
2010,05,19,19,07,1.60
2010,05,19,19,08,1.60
2010,05,19,19,09,1.60
2010,05,19,19,11,1.60
2010,05,19,19,12,3.20
2010,05,19,19,13,1.60
2010,05,19,19,20,1.60
2010,05,19,19,21,1.60
2010,05,19,19,24,3.20
2010,05,19,19,25,3.20
2010,05,19,19,26,3.20
2010,05,19,19,28,3.20
2010,05,19,19,29,3.20
2010,05,19,19,30,1.60
2010,05,19,19,31,4.80
2010,05,19,19,32,6.40
2010,05,19,19,33,4.80
2010,05,19,19,34,4.80
2010,05,19,19,35,3.20
2010,05,19,19,36,6.40
2010,05,19,19,37,4.80
2010,05,19,19,38,9.60
2010,05,19,19,39,9.60
2010,05,19,19,40,8.10
2010,05,19,19,41,6.40
2010,05,19,19,42,6.40
2010,05,19,19,43,11.30
2010,05,19,19,44,8.10
2010,05,19,19,45,9.60
2010,05,19,19,46,6.40
2010,05,19,19,47,4.80
2010,05,19,19,48,9.60
2010,05,19,19,49,6.40
2010,05,19,19,50,11.30
2010,05,19,19,51,8.10
2010,05,19,19,52,4.80
2010,05,19,19,53,6.40
2010,05,19,19,54,8.10
2010,05,19,19,55,8.10
2010,05,19,19,56,4.80
2010,05,19,19,57,6.40
2010,05,19,19,58,6.40
2010,05,19,19,59,8.10
2010,05,19,20,00,9.60
2010,05,19,20,01,9.60
2010,05,19,20,02,8.10
2010,05,19,20,03,4.80
2010,05,19,20,04,16.10
2010,05,19,20,05,16.10
2010,05,19,20,06,19.30
2010,05,19,20,07,17.70
2010,05,19,20,08,11.30
2010,05,19,20,09,17.70
2010,05,19,20,10,9.60
2010,05,19,20,11,16.10
2010,05,19,20,12,19.30
2010,05,19,20,13,19.30
2010,05,19,20,14,22.50
2010,05,19,20,15,22.50
2010,05,19,20,16,20.90
2010,05,19,20,17,32.20
2010,05,19,20,18,24.20
2010,05,19,20,19,24.20
2010,05,19,20,20,25.70
2010,05,19,20,21,24.20
2010,05,19,20,22,22.50
2010,05,19,20,23,19.30
2010,05,19,20,24,19.30
2010,05,19,20,25,25.70
2010,05,19,20,26,25.70
2010,05,19,20,27,24.20
2010,05,19,20,28,17.70
2010,05,19,20,29,20.90
2010,05,19,20,30,22.50
2010,05,19,20,31,24.20
2010,05,19,20,32,16.10
2010,05,19,20,33,29.00
2010,05,19,20,34,25.70
2010,05,19,20,35,22.50
2010,05,19,20,36,16.10
2010,05,19,20,37,9.60
2010,05,19,20,38,22.50
2010,05,19,20,39,24.20
2010,05,19,20,40,17.70
2010,05,19,20,41,22.50
2010,05,19,20,42,20.90
2010,05,19,20,43,12.90
2010,05,19,20,44,20.90
2010,05,19,20,45,20.90
2010,05,19,20,46,25.70
2010,05,19,20,47,16.10
2010,05,19,20,48,22.50
2010,05,19,20,49,20.90
2010,05,19,20,50,14.50
2010,05,19,20,51,16.10
2010,05,19,20,52,17.70
2010,05,19,20,53,19.30
2010,05,19,20,54,17.70
2010,05,19,20,55,16.10
2010,05,19,20,56,11.30
2010,05,19,20,57,11.30
2010,05,19,20,58,17.70
2010,05,19,20,59,14.50
2010,05,19,21,00,14.50
2010,05,19,21,01,22.50
2010,05,19,21,02,19.30
2010,05,19,21,03,17.70
2010,05,19,21,04,14.50
2010,05,19,21,05,16.10
2010,05,19,21,06,27.40
2010,05,19,21,07,20.90
2010,05,19,21,08,20.90
2010,05,19,21,09,20.90
2010,05,19,21,10,24.20
2010,05,19,21,11,20.90
2010,05,19,21,12,14.50
2010,05,19,21,13,14.50
2010,05,19,21,14,11.30
2010,05,19,21,15,16.10
2010,05,19,21,16,16.10
2010,05,19,21,17,8.10
2010,05,19,21,18,16.10
2010,05,19,21,19,16.10
2010,05,19,21,20,20.90
2010,05,19,21,21,12.90
2010,05,19,21,22,19.30
2010,05,19,21,23,17.70
2010,05,19,21,24,11.30
2010,05,19,21,25,16.10
2010,05,19,21,26,16.10
2010,05,19,21,27,19.30
2010,05,19,21,28,22.50
2010,05,19,21,29,27.40
2010,05,19,21,30,20.90
2010,05,19,21,31,16.10
2010,05,19,21,32,17.70
2010,05,19,21,33,24.20
2010,05,19,21,34,11.30
2010,05,19,21,35,16.10
2010,05,19,21,36,20.90
2010,05,19,21,37,17.70
2010,05,19,21,38,25.70
2010,05,19,21,39,24.20
2010,05,19,21,40,20.90
2010,05,19,21,41,11.30
2010,05,19,21,42,22.50
2010,05,19,21,43,17.70
2010,05,19,21,44,6.40
2010,05,19,21,45,20.90
2010,05,19,21,46,20.90
2010,05,19,21,47,17.70
2010,05,19,21,48,20.90
2010,05,19,21,49,19.30
2010,05,19,21,50,17.70
2010,05,19,21,51,24.20
2010,05,19,21,52,17.70
2010,05,19,21,53,22.50
2010,05,19,21,54,19.30
2010,05,19,21,55,19.30
2010,05,19,21,56,9.60
2010,05,19,21,57,8.10
2010,05,19,21,58,4.80
2010,05,19,21,59,14.50
2010,05,19,22,00,14.50
2010,05,19,22,01,14.50
2010,05,19,22,02,14.50
2010,05,19,22,03,12.90
2010,05,19,22,04,11.30
2010,05,19,22,05,9.60
2010,05,19,22,06,14.50
2010,05,19,22,07,9.60
2010,05,19,22,08,16.10
2010,05,19,22,09,11.30
2010,05,19,22,10,8.10
2010,05,19,22,11,12.90
2010,05,19,22,12,16.10
2010,05,19,22,13,6.40
2010,05,19,22,14,16.10
2010,05,19,22,15,6.40
2010,05,19,22,16,3.20
2010,05,19,22,17,3.20
2010,05,19,22,18,8.10
2010,05,19,22,19,11.30
2010,05,19,22,20,6.40
2010,05,19,22,21,16.10
2010,05,19,22,22,8.10
2010,05,19,22,23,11.30
2010,05,19,22,24,14.50
2010,05,19,22,25,16.10
2010,05,19,22,26,16.10
2010,05,19,22,27,14.50
2010,05,19,22,28,19.30
2010,05,19,22,29,11.30
2010,05,19,22,30,17.70
2010,05,19,22,31,9.60
2010,05,19,22,32,22.50